Dewpoint
58 58 59 60 61 61 61 59 58 59 59 59 59 60 61 62 60 54 45 53 54 66 65 50 48 45 46 46 48 47 34 30 31 29 28 32 27 32 34 33 36 39 40 43 45
58 57 57 58 58 59 59 58 58 59 59 59 59 60 61 62 56 49 58 60 64 64 43 40 37 37 37 43 44 40 34 29 34 33 28 35 30 30 31 32 33 36 38 39 39
58 57 57 56 56 57 58 58 58 59 59 59 60 61 61 59 52 46 60 61 64 61 46 44 39 40 43 40 38 38 33 32 37 32 32 32 32 37 32 33 32 34 36 35 35
58 58 57 57 58 58 58 59 59 59 59 59 60 61 61 55 34 32 58 62 65 56 41 38 36 39 38 34 35 30 36 36 37 35 31 29 32 32 35 34 33 32 34 32 32
57 57 57 57 58 58 59 59 59 59 59 59 59 60 53 48 46 30 60 59 49 44 39 37 32 34 32 31 31 31 31 34 33 34 33 33 34 31 31 33 32 31 31 29 28
55 56 56 57 57 58 58 58 58 58 58 59 59 60 50 42 29 30 30 33 39 47 38 36 30 30 29 30 30 32 31 31 33 32 34 32 33 33 31 31 31 29 28 27 25
54 55 56 57 57 58 58 58 58 58 58 58 58 55 49 42 27 24 29 29 36 41 44 38 36 31 31 30 31 28 26 28 30 30 32 32 30 30 31 30 30 28 25 23 23
53 55 55 57 57 58 58 58 58 58 58 58 59 53 43 37 28 26 30 31 35 39 41 42 39 36 31 31 22 21 22 22 24 31 32 27 24 29 31 29 29 28 25 23 20
53 54 55 56 57 57 58 58 58 57 58 58 55 48 38 39 26 24 31 30 33 34 38 30 39 34 27 22 20 22 12 18 20 31 31 26 25 32 30 29 28 27 25 23 20
54 54 55 57 57 57 57 57 56 56 55 51 49 40 35 24 28 27 27 31 32 33 35 35 32 27 27 21 9 14 17 16 20 27 30 28 25 30 29 29 28 27 24 22 19
54 55 57 57 57 57 54 47 44 44 46 36 36 31 24 27 30 28 30 31 31 26 27 33 23 16 16 24 21 20 18 17 19 28 28 28 28 28 30 28 28 26 24 22 19
55 56 57 57 57 57 52 46 40 34 31 37 31 28 26 27 27 30 32 27 27 23 27 23 20 20 27 27 25 24 20 20 26 30 24 25 25 27 30 28 27 27 25 23 20
56 57 58 58 57 52 46 46 45 43 25 30 32 26 28 30 32 30 32 32 25 25 23 19 27 28 26 27 26 26 23 24 22 27 26 26 25 26 30 30 28 28 25 24 21
57 58 57 57 47 44 39 42 45 43 22 26 29 30 28 35 33 34 32 34 30 22 27 24 28 27 27 25 25 23 29 29 29 25 19 24 17 23 25 27 27 27 26 23 21
57 57 57 55 51 46 44 45 44 38 17 27 30 33 29 32 33 35 35 33 30 30 24 22 26 28 28 27 29 25 32 29 29 25 25 22 20 19 27 25 26 27 27 26 22
56 56 56 52 49 47 48 45 40 20 21 29 31 29 27 30 33 36 31 30 31 27 27 26 30 28 28 29 29 31 26 28 28 24 19 19 16 13 24 25 26 26 26 26 24
55 56 53 49 43 45 45 40 13 22 30 28 27 29 28 27 29 31 28 24 23 21 22 27 27 26 27 25 29 26 21 15 17 21 19 21 17 13 20 19 24 26 25 26 24
53 54 52 47 45 43 41 31 26 27 29 33 31 29 26 28 28 29 28 24 18 20 19 22 22 25 25 24 24 26 22 18 13 18 17 15 17 16 17 17 20 24 25 25 24
52 45 44 41 46 43 35 26 26 29 30 29 30 27 27 27 28 27 26 22 18 17 17 13 19 22 21 21 23 22 18 20 14 13 10 11 16 17 16 15 18 21 23 24 24
40 40 38 36 41 40 32 31 25 29 30 31 27 28 26 25 22 23 24 27 23 20 19 13 6 20 21 20 22 20 21 15 17 3 9 11 10 13 14 14 16 18 20 21 22
36 32 34 35 37 35 23 27 26 28 30 28 28 28 26 23 22 22 24 27 28 22 18 15 9 10 13 16 17 17 14 16 16 17 11 8 7 14 15 15 15 15 17 19 21
38 24 29 35 29 31 29 25 33 28 28 27 27 27 25 24 20 21 25 28 28 26 19 17 14 11 10 13 16 18 11 14 16 11 14 17 18 16 14 16 15 15 18 20 23
35 26 27 33 25 23 24 24 26 27 26 25 26 25 22 21 18 25 29 31 28 27 22 19 9 7 10 18 20 6 8 13 20 20 12 12 9 13 14 15 17 17 19 19 21
27 21 26 28 27 22 22 22 22 25 25 18 19 19 18 17 18 22 27 29 29 31 27 25 17 13 14 16 17 14 15 13 13 16 11 14 12 16 16 16 15 16 17 18 19
29 26 24 18 18 21 21 22 20 16 19 18 15 18 15 15 15 20 28 26 26 32 26 21 11 18 18 19 20 17 16 17 13 13 12 13 14 15 16 16 17 19 23 22 22
28 24 21 16 14 14 22 18 15 16 14 14 15 16 9 12 13 14 24 24 22 28 24 22 13 20 17 23 23 18 20 21 19 17 15 16 15 20 21 22 22 22 22 23 24
32 29 25 27 14 16 14 11 14 14 16 16 15 13 15 17 17 18 19 20 26 25 25 22 21 20 16 22 21 13 19 19 19 18 17 15 20 24 24 24 23 23 24 24 24
Lifted_Index
2 2 2 2 2 3 4 5 6 6 6 6 7 7 6 7 7 5 4 4 5 5 5 5 4 3 2 1 0 0 0 1 3 3 4 4 5 5 6 7 7 7 6 4 2
2 2 1 1 2 3 4 5 6 6 6 6 6 6 6 7 6 5 4 5 6 6 5 5 4 3 2 1 0 -0 0 1 2 3 3 3 4 5 6 6 7 7 7 5 3
1 1 1 1 1 2 3 4 5 5 6 6 5 6 6 6 5 5 5 6 6 6 6 5 4 3 1 1 0 0 0 1 2 2 3 3 4 5 6 7 7 8 8 7 6
-0 -0 -0 -0 0 1 2 3 4 5 5 5 5 5 6 6 5 6 7 7 6 5 5 5 4 2 1 1 0 0 0 0 1 2 3 4 5 6 7 8 9 9 9 8 8
-0 -0 -1 -1 -0 0 1 2 3 4 4 5 5 5 5 5 5 7 9 8 6 5 3 3 3 2 1 0 0 0 0 1 2 3 4 5 6 7 8 9 10 10 10 10 10
0 0 -0 -0 -0 0 1 2 3 4 4 4 5 5 5 4 6 9 9 9 7 5 3 3 3 3 1 1 1 1 1 1 3 4 6 7 7 8 9 10 10 11 11 11 12
1 1 1 0 0 1 1 2 3 3 4 4 4 4 4 5 8 9 10 9 7 6 4 5 5 4 3 2 2 2 2 2 4 6 7 7 7 7 9 10 10 11 11 12 12
2 2 1 1 1 1 2 2 3 3 3 4 4 4 5 6 8 9 9 9 8 7 7 7 7 5 4 3 2 2 2 4 5 7 7 7 6 7 9 9 10 10 10 11 11
3 2 2 1 1 1 2 3 3 3 3 3 4 4 5 7 8 9 9 8 8 8 8 7 6 5 3 2 2 2 3 5 6 7 7 7 6 7 8 9 9 9 9 10 10
3 3 2 2 2 2 3 3 3 3 3 4 4 4 5 7 8 9 9 8 8 7 7 6 5 3 2 2 3 3 4 5 6 7 7 6 6 7 8 9 9 9 9 9 9
3 3 3 2 3 3 4 4 3 3 3 4 4 4 5 7 8 8 8 8 7 6 5 4 3 2 3 4 4 5 5 5 6 7 7 6 6 7 8 8 9 9 9 9 9
4 3 3 3 3 3 4 3 3 3 3 4 5 5 6 7 7 7 7 7 6 4 4 3 3 4 5 5 5 5 5 5 6 7 7 6 6 7 7 8 8 9 9 8 9
3 3 3 3 3 3 2 2 2 2 3 4 5 6 7 7 6 7 7 7 5 4 4 4 4 5 5 5 5 5 5 5 5 6 6 6 5 5 6 7 7 8 8 8 8
3 3 3 3 3 2 2 2 2 2 2 3 4 6 7 6 6 6 7 7 6 5 5 4 5 5 5 5 5 5 5 5 5 5 5 5 4 4 5 5 6 7 7 8 8
4 4 4 4 3 2 2 2 2 2 2 3 4 5 6 6 6 6 7 7 6 5 5 5 5 5 5 5 5 5 6 6 6 5 4 4 3 3 4 4 5 6 7 7 8
6 5 5 4 3 3 3 2 2 2 2 3 4 5 6 6 6 6 7 7 6 5 5 5 5 6 6 6 6 6 5 5 5 4 3 3 3 3 4 4 5 6 7 7 8
7 6 5 4 3 3 3 3 2 2 2 3 4 5 5 5 5 6 6 6 5 4 4 4 5 6 6 6 6 6 5 3 2 2 2 3 3 3 4 5 6 6 7 8 8
7 6 5 5 4 4 3 3 2 2 3 3 4 5 5 5 5 5 5 5 5 5 4 3 4 5 6 6 6 5 4 3 2 1 2 3 3 4 5 6 6 7 7 8 8
6 6 5 5 5 5 4 3 2 3 3 3 4 4 4 4 4 5 4 5 5 5 4 4 4 5 6 6 6 5 5 4 3 2 2 3 3 4 5 6 7 7 7 7 7
6 6 6 6 6 5 4 3 3 3 4 4 4 4 4 4 4 4 5 5 6 6 6 5 4 5 6 6 6 6 5 4 4 2 1 2 3 4 5 6 7 7 7 7 7
6 6 6 6 6 5 4 4 3 4 4 4 4 4 4 4 4 5 5 6 6 7 7 6 5 5 5 6 6 6 5 5 4 3 2 2 3 4 5 6 6 7 7 7 8
6 6 6 6 5 5 4 4 4 4 4 5 5 5 5 5 5 5 5 6 7 7 7 6 5 4 4 5 6 6 5 5 4 3 3 2 3 5 6 6 7 7 8 8 8
6 6 6 6 5 5 4 4 4 4 5 5 6 6 5 5 5 5 6 6 7 7 7 6 5 3 3 5 5 5 5 5 5 4 3 3 4 5 6 7 7 7 7 7 7
6 6 6 6 5 5 5 5 5 5 6 6 6 6 6 5 5 5 6 7 7 7 7 7 5 4 4 4 5 5 5 5 5 4 4 4 4 5 6 6 7 7 7 7 7
6 6 6 6 5 5 5 5 5 5 6 6 6 6 5 5 5 5 5 6 7 7 7 6 5 4 4 5 5 5 5 5 5 5 4 4 5 5 6 6 6 6 7 7 7
6 6 6 6 6 5 5 5 5 5 5 5 5 5 5 5 5 5 5 6 6 6 6 5 4 4 4 5 5 4 4 5 5 5 5 5 5 5 6 6 6 6 6 7 7
6 6 6 6 5 5 5 5 5 5 5 5 5 5 5 5 6 6 6 6 5 5 5 5 4 4 4 4 4 4 4 5 5 6 5 5 5 5 6 6 6 6 6 6 7